Lid_Strength_Index
4 5 5 5 6 7 7 7 8 8 8 8 8 7 7 7 6 6 6 6 6 6 6 5 4 4 5 9 8 3 -1 0 3 5 6 7 7 6 7 7 7 8 6 6 6 6 6
5 5 5 6 6 7 7 7 8 8 7 8 8 7 7 7 6 6 6 6 5 5 5 4 4 4 6 11 4 3 4 3 4 5 6 6 7 5 6 6 7 6 6 6 6 6 6
5 6 6 6 6 6 7 7 8 8 8 8 7 7 7 7 6 6 6 5 4 5 4 3 3 4 7 8 3 3 3 5 5 5 6 5 5 5 5 7 5 5 8 7 7 6 7
5 6 6 6 6 6 7 8 8 8 8 7 8 7 7 7 6 6 5 5 4 3 3 3 2 4 8 3 2 3 4 4 3 3 5 5 4 5 5 5 6 7 7 10 7 7 6
5 6 6 6 6 7 7 8 8 8 8 7 8 7 7 6 5 5 5 4 4 3 3 2 3 4 8 1 4 3 3 4 3 3 3 3 4 6 6 7 9 8 11 10 9 7 7
6 6 6 6 6 7 7 8 8 8 8 8 7 7 6 6 5 5 4 4 3 2 3 4 3 7 5 6 4 5 4 4 3 4 4 4 5 8 8 9 14 11 11 10 10 8 7
6 6 6 6 7 7 7 8 8 8 8 8 7 6 6 5 5 4 4 5 8 8 8 10 9 8 8 6 5 6 4 4 5 6 9 6 9 11 10 8 8 9 10 10 9 8 9
6 6 6 7 7 7 7 8 8 8 8 8 7 6 5 5 4 4 4 8 8 8 12 8 8 8 7 6 9 6 2 5 6 9 8 8 12 8 7 8 8 9 10 10 10 8 9
6 6 6 7 7 8 8 8 8 8 8 7 6 5 5 4 4 4 5 7 5 5 11 9 8 8 5 3 6 5 3 4 7 9 9 10 9 7 7 8 9 9 10 11 11 10 10
6 7 7 7 7 8 8 8 8 8 7 6 6 5 4 4 5 4 6 4 4 4 13 10 8 5 4 5 7 3 3 5 7 9 8 9 7 8 8 9 9 11 8 9 10 14 17
7 7 7 7 8 7 8 8 8 8 7 6 5 5 4 4 5 5 5 3 3 5 18 10 8 2 4 6 6 6 2 5 9 8 8 10 9 9 10 9 8 10 7 9 9 13 14
7 7 7 8 7 7 8 7 8 7 6 5 5 4 4 4 4 4 3 2 4 13 17 11 7 8 9 8 7 5 6 4 5 7 7 9 7 8 8 7 7 7 9 10 10 12 19
7 7 7 7 7 7 8 7 7 7 6 5 4 4 4 4 5 2 2 4 12 15 9 11 11 9 9 10 9 8 9 11 12 12 12 10 10 7 6 9 7 8 11 16 18 20 19
7 7 7 7 7 8 7 7 7 6 5 5 4 4 3 3 2 1 3 8 16 12 11 9 10 10 11 10 10 11 11 12 8 9 11 13 18 11 7 8 10 10 11 16 19 18 16
7 7 7 7 8 7 7 7 7 6 5 4 4 3 3 2 1 2 6 12 13 11 9 11 10 12 13 11 11 11 11 11 8 8 13 16 16 8 7 7 7 11 13 9 17 15 19
7 7 7 8 8 7 7 7 7 6 5 4 5 4 4 2 1 3 7 12 10 8 8 9 13 12 14 12 13 11 12 8 8 7 8 11 17 9 8 7 8 9 8 16 16 22 23
7 7 7 8 7 7 7 6 6 5 5 4 4 6 3 1 1 5 11 10 9 7 7 10 11 12 11 13 12 13 12 10 8 8 7 9 12 11 10 13 12 11 13 13 13 14 19
7 7 7 8 7 7 6 6 6 5 4 5 4 8 3 1 7 6 9 8 7 7 6 7 8 9 11 12 13 13 13 12 8 7 11 7 11 14 12 10 8 9 11 11 17 15 15
7 7 8 7 7 7 6 6 6 5 4 4 6 6 2 2 10 9 8 8 7 7 8 8 9 8 9 12 14 12 11 9 7 8 11 9 12 17 14 11 10 11 10 10 11 13 15
7 7 7 7 7 6 6 6 6 5 4 5 6 8 5 5 5 8 9 9 9 6 7 7 8 7 8 11 10 12 12 9 7 8 7 8 11 14 16 13 12 15 13 12 11 16 15
7 7 7 7 6 6 6 6 6 5 4 5 5 7 7 9 8 8 8 8 10 10 7 6 8 8 9 13 12 12 11 10 8 7 8 9 15 13 12 11 11 13 13 12 12 11 16
7 7 7 7 6 6 6 5 6 5 4 4 9 7 6 8 7 8 9 9 10 9 8 9 9 8 8 11 11 13 11 10 11 9 10 9 15 13 15 10 11 12 11 10 10 10 10
6 6 6 6 6 6 5 5 5 5 4 5 4 4 6 7 8 9 9 9 9 8 7 7 7 8 9 9 8 8 7 7 8 10 10 11 11 14 15 11 12 14 11 10 10 10 11
6 6 6 6 6 6 5 5 5 5 4 3 4 5 7 9 8 9 9 8 8 8 8 6 6 8 7 5 4 5 7 7 8 8 8 11 11 11 14 13 20 11 8 9 10 10 9
5 5 6 6 6 6 5 5 4 4 3 3 3 5 7 9 7 8 8 8 7 6 6 6 5 5 4 5 8 11 10 11 10 9 9 8 10 13 15 15 13 11 10 11 12 13 9
5 5 5 5 5 5 5 5 4 3 3 2 3 2 5 8 8 7 8 7 8 8 7 6 3 3 4 7 10 14 14 12 12 11 8 8 8 12 12 15 19 13 10 7 7 15 9
5 5 5 5 5 5 4 3 3 3 3 2 2 2 4 7 5 5 8 8 6 7 8 6 6 6 4 9 12 13 15 9 14 13 13 12 12 14 14 15 14 12 9 8 15 15 10
5 5 4 5 5 4 3 3 3 4 3 3 2 1 4 6 5 4 4 6 6 6 8 6 7 7 8 11 11 11 12 11 12 10 11 13 14 14 14 15 18 11 9 13 12 10 10
4 4 4 4 3 3 3 3 3 4 3 3 4 2 2 6 5 3 2 2 3 3 5 5 6 7 7 9 9 10 12 10 11 15 8 14 11 13 12 14 10 10 11 10 9 11 10